Montague, CA

1:53 PM PDT on April 26, 2017 (GMT -0700)
Siskiyou County

Weather History for KSIY - March, 2014

Change the Weather History Date:

Sunday, March 30, 2014

  Actual Average Record
Temperature  
Mean Temperature 42 °F 44 °F  
Max Temperature 50 °F 57 °F 79 °F (1966)
Min Temperature 33 °F 30 °F 18 °F (2008)
Degree Days  
Heating Degree Days 23 21  
Month to date heating degree days 536 663  
Since 1 July heating degree days 4584 4540  
Cooling Degree Days 0 0  
Month to date cooling degree days 0 0  
Year to date cooling degree days 0 0  
Moisture  
Dew Point 32 °F    
Average Humidity 71    
Maximum Humidity 96    
Minimum Humidity 42    
Precipitation  
Precipitation T in 0.07 in 1.05 in (1974)
Month to date precipitation 2.31 2.23  
Year to date precipitation 4.75 6.44  
Sea Level Pressure  
Sea Level Pressure 30.03 in    
Wind  
Wind Speed 4 mph (SSE)    
Max Wind Speed 20 mph    
Max Gust Speed 24 mph    
Visibility 10 miles    
Events      
T = Trace of Precipitation, MM = Missing Value Source: NWS Daily Summary

Daily Weather History Graph

Daily Weather History Graph

Search for Another Location

Airport or City:

Trip Planner

Search our weather history database for the weather conditions in past years. The results will help you decide how hot, cold, wet, or windy it might be!

Date:

Astronomy

Mar. 30, 2014 Rise Set
Actual Time 6:55 AM PDT 7:33 PM PDT
Civil Twilight 6:27 AM PDT 8:01 PM PDT
Nautical Twilight 5:54 AM PDT 8:34 PM PDT
Astronomical Twilight 5:20 AM PDT 9:08 PM PDT
Moon 6:45 AM PDT (3/30) 7:52 PM PDT (3/30)
Length of Visible Light 13h 33m
Length of Day
12h 37m
New Moon, 0% of the Moon is Illuminated
Mar 30
New Moon
Apr 7
First Quarter
Apr 15
Full
Apr 22
Last Quarter
Apr 28
New

Hourly Weather History & Observations

Time (PDT) Temp. Windchill Dew Point Humidity Pressure Visibility Wind Dir Wind Speed Gust Speed Precip Events Conditions
12:53 AM 42.1 °F 39.2 °F 33.1 °F 70% 30.01 in 10.0 mi North 4.6 mph - N/A   Overcast
1:53 AM 39.9 °F - 34.0 °F 79% 30.01 in 10.0 mi Calm Calm - N/A   Overcast
2:53 AM 37.9 °F - 33.1 °F 83% 30.02 in 10.0 mi Calm Calm - N/A   Partly Cloudy
3:53 AM 37.9 °F 33.5 °F 32.0 °F 79% 30.01 in 10.0 mi SSW 5.8 mph - N/A   Overcast
4:53 AM 37.9 °F - 33.1 °F 83% 30.02 in 10.0 mi Calm Calm - N/A   Overcast
5:53 AM 37.9 °F 35.5 °F 33.1 °F 83% 30.04 in 10.0 mi SSE 3.5 mph - N/A   Overcast
6:53 AM 35.1 °F - 33.1 °F 92% 30.06 in 10.0 mi Calm Calm - N/A   Mostly Cloudy
7:53 AM 34.0 °F - 32.0 °F 92% 30.07 in 10.0 mi Calm Calm - N/A   Clear
8:53 AM 41.0 °F - 35.1 °F 79% 30.07 in 10.0 mi Calm Calm - N/A   Mostly Cloudy
9:53 AM 43.0 °F 41.3 °F 33.1 °F 68% 30.07 in 10.0 mi Variable 3.5 mph - N/A   Mostly Cloudy
10:53 AM 46.0 °F - 33.1 °F 61% 30.06 in 10.0 mi Calm Calm - N/A   Overcast
11:53 AM 46.9 °F - 30.0 °F 52% 30.06 in 10.0 mi Variable 3.5 mph - N/A   Mostly Cloudy
12:53 PM 48.9 °F - 28.0 °F 44% 30.04 in 10.0 mi Variable 3.5 mph - N/A   Partly Cloudy
1:53 PM 48.0 °F - 27.0 °F 44% 30.04 in 10.0 mi Calm Calm - N/A   Mostly Cloudy
2:53 PM 50.0 °F - 30.0 °F 46% 30.02 in 10.0 mi South 9.2 mph - 0.00 in   Scattered Clouds
3:53 PM 50.0 °F - 28.9 °F 44% 30.00 in 10.0 mi Variable 3.5 mph - N/A   Mostly Cloudy
4:53 PM 46.0 °F 39.3 °F 34.0 °F 63% 30.01 in 10.0 mi SSE 16.1 mph - 0.00 in   Overcast
5:53 PM 46.0 °F 39.9 °F 33.1 °F 61% 30.00 in 10.0 mi SE 13.8 mph - N/A   Overcast
6:53 PM 45.0 °F 40.1 °F 35.1 °F 68% 30.02 in 10.0 mi South 9.2 mph - N/A   Mostly Cloudy
7:53 PM 41.0 °F 36.4 °F 36.0 °F 82% 30.04 in 10.0 mi SSE 6.9 mph - 0.00 in   Overcast
8:53 PM 41.0 °F 39.0 °F 34.0 °F 76% 30.04 in 10.0 mi South 3.5 mph - N/A   Overcast
9:53 PM 37.0 °F 34.5 °F 33.1 °F 86% 30.04 in 10.0 mi North 3.5 mph - N/A   Partly Cloudy
10:53 PM 35.1 °F 32.2 °F 30.9 °F 85% 30.03 in 10.0 mi East 3.5 mph - N/A   Clear
11:53 PM 34.0 °F - 30.9 °F 89% 30.01 in 10.0 mi Calm Calm - N/A   Mostly Cloudy